• In Uzbekistan
  • List of Countries
  • For 7 days
  • Water Temperature
  • Satellite Maps
  • Weather Map
  • Weather Widgets
  • user-avatar
    Login

    Hourly Weather Hurghada

    Today, 19 October, Friday

    Time Temperature Precipitation Wind Pressure Humidity
    00:00 +21°C° 0 mm 2 mps 682 mmHg 59%
    01:00 +21°C° 0 mm 2 mps 682 mmHg 59%
    02:00 +20°C° 0 mm 2 mps 682 mmHg 60%
    03:00 +20°C° 0 mm 2 mps 682 mmHg 61%
    04:00 +19°C° 0 mm 2 mps 682 mmHg 62%
    05:00 +19°C° 0 mm 2 mps 682 mmHg 63%
    06:00 +20°C° 0 mm 2 mps 682 mmHg 60%
    07:00 +21°C° 0 mm 2 mps 683 mmHg 58%
    08:00 +23°C° 0 mm 2 mps 683 mmHg 56%
    09:00 +24°C° 0 mm 2 mps 683 mmHg 50%
    10:00 +25°C° 0 mm 2 mps 684 mmHg 43%
    11:00 +26°C° 0 mm 2 mps 684 mmHg 37%
    12:00 +27°C° 0 mm 2 mps 684 mmHg 34%
    13:00 +28°C° 0 mm 2 mps 684 mmHg 31%
    14:00 +29°C° 0 mm 3 mps 684 mmHg 28%
    15:00 +28°C° 0 mm 3 mps 683 mmHg 30%
    16:00 +28°C° 0 mm 3 mps 683 mmHg 33%
    17:00 +27°C° 0 mm 3 mps 683 mmHg 35%
    18:00 +26°C° 0 mm 3 mps 683 mmHg 39%
    19:00 +25°C° 0 mm 2 mps 683 mmHg 42%
    20:00 +24°C° 0 mm 2 mps 683 mmHg 46%
    21:00 +24°C° 0 mm 2 mps 683 mmHg 47%
    22:00 +23°C° 0 mm 2 mps 683 mmHg 48%
    23:00 +23°C° 0 mm 2 mps 683 mmHg 50%

    Tomorrow, 20 October, Saturday

    Time Temperature Precipitation Wind Pressure Humidity
    00:00 +21°C° 0 mm 2 mps 683 mmHg 49%
    01:00 +21°C° 0 mm 2 mps 683 mmHg 48%
    02:00 +20°C° 0 mm 2 mps 682 mmHg 47%
    03:00 +20°C° 0 mm 2 mps 682 mmHg 46%
    04:00 +20°C° 0 mm 2 mps 682 mmHg 45%
    05:00 +19°C° 0 mm 2 mps 682 mmHg 44%
    06:00 +21°C° 0 mm 2 mps 683 mmHg 41%
    07:00 +23°C° 0 mm 2 mps 684 mmHg 37%
    08:00 +24°C° 0 mm 2 mps 684 mmHg 33%
    09:00 +25°C° 0 mm 2 mps 684 mmHg 30%
    10:00 +27°C° 0 mm 2 mps 684 mmHg 27%
    11:00 +28°C° 0 mm 2 mps 685 mmHg 24%
    12:00 +29°C° 0 mm 2 mps 684 mmHg 22%
    13:00 +29°C° 0 mm 2 mps 684 mmHg 21%
    14:00 +30°C° 0 mm 2 mps 684 mmHg 19%
    15:00 +29°C° 0 mm 2 mps 683 mmHg 21%
    16:00 +29°C° 0 mm 3 mps 683 mmHg 23%
    17:00 +28°C° 0 mm 3 mps 683 mmHg 24%
    18:00 +27°C° 0 mm 3 mps 683 mmHg 28%
    19:00 +26°C° 0 mm 2 mps 683 mmHg 31%
    20:00 +25°C° 0 mm 2 mps 683 mmHg 34%
    21:00 +24°C° 0 mm 2 mps 683 mmHg 34%
    22:00 +24°C° 0 mm 2 mps 683 mmHg 33%
    23:00 +23°C° 0 mm 2 mps 683 mmHg 33%

    Day after tomorrow, 21 October, Sunday

    Time Temperature Precipitation Wind Pressure Humidity
    00:00 +23°C° 0 mm 1 mps 683 mmHg 32%
    01:00 +23°C° 0 mm 1 mps 683 mmHg 32%
    02:00 +22°C° 0 mm 1 mps 682 mmHg 31%
    03:00 +22°C° 0 mm 1 mps 682 mmHg 32%
    04:00 +21°C° 0 mm 1 mps 682 mmHg 33%
    05:00 +21°C° 0 mm 1 mps 682 mmHg 34%
    06:00 +22°C° 0 mm 1 mps 683 mmHg 31%
    07:00 +24°C° 0 mm 1 mps 683 mmHg 28%
    08:00 +24°C° 0 mm 0 mps 684 mmHg 25%
    09:00 +27°C° 0 mm 1 mps 684 mmHg 23%
    10:00 +28°C° 0 mm 1 mps 684 mmHg 21%
    11:00 +30°C° 0 mm 1 mps 685 mmHg 19%
    12:00 +30°C° 0 mm 2 mps 684 mmHg 19%
    13:00 +31°C° 0 mm 2 mps 684 mmHg 19%
    14:00 +31°C° 0 mm 3 mps 683 mmHg 18%
    15:00 +30°C° 0 mm 3 mps 683 mmHg 21%
    16:00 +30°C° 0 mm 2 mps 683 mmHg 24%
    17:00 +29°C° 0 mm 2 mps 683 mmHg 27%
    18:00 +28°C° 0 mm 2 mps 683 mmHg 29%
    19:00 +27°C° 0 mm 2 mps 683 mmHg 32%
    20:00 +26°C° 0 mm 2 mps 683 mmHg 34%
    21:00 +26°C° 0 mm 2 mps 683 mmHg 35%
    22:00 +25°C° 0 mm 2 mps 683 mmHg 35%
    23:00 +25°C° 0 mm 1 mps 683 mmHg 36%

    22 October, Monday

    Time Temperature Precipitation Wind Pressure Humidity
    00:00 +24°C° 0 mm 1 mps 682 mmHg 36%
    01:00 +24°C° 0 mm 1 mps 682 mmHg 37%
    02:00 +23°C° 0 mm 1 mps 682 mmHg 37%
    03:00 +23°C° 0 mm 1 mps 682 mmHg 37%
    04:00 +23°C° 0 mm 1 mps 682 mmHg 37%
    05:00 +22°C° 0 mm 1 mps 682 mmHg 37%
    06:00 +24°C° 0 mm 2 mps 683 mmHg 33%
    07:00 +25°C° 0 mm 2 mps 683 mmHg 30%
    08:00 +27°C° 0 mm 2 mps 684 mmHg 26%
    09:00 +29°C° 0 mm 3 mps 684 mmHg 24%
    10:00 +30°C° 0 mm 3 mps 684 mmHg 21%
    11:00 +32°C° 0 mm 4 mps 684 mmHg 19%
    12:00 +33°C° 0 mm 4 mps 684 mmHg 19%
    13:00 +33°C° 0 mm 4 mps 683 mmHg 19%
    14:00 +34°C° 0 mm 5 mps 683 mmHg 19%
    15:00 +33°C° 0 mm 4 mps 682 mmHg 21%
    16:00 +32°C° 0 mm 4 mps 682 mmHg 24%
    17:00 +30°C° 0 mm 3 mps 682 mmHg 26%
    18:00 +29°C° 0 mm 3 mps 682 mmHg 30%
    19:00 +28°C° 0 mm 2 mps 682 mmHg 33%
    20:00 +27°C° 0 mm 2 mps 682 mmHg 36%
    21:00 +26°C° 0 mm 2 mps 682 mmHg 37%
    22:00 +25°C° 0 mm 1 mps 682 mmHg 38%
    23:00 +25°C° 0 mm 1 mps 682 mmHg 39%

    23 October, Tuesday

    Time Temperature Precipitation Wind Pressure Humidity
    00:00 +24°C° 0 mm 1 mps 682 mmHg 40%
    01:00 +24°C° 0 mm 1 mps 681 mmHg 41%
    02:00 +23°C° 0 mm 1 mps 681 mmHg 43%
    03:00 +23°C° 0 mm 1 mps 681 mmHg 44%
    04:00 +23°C° 0 mm 1 mps 681 mmHg 45%
    05:00 +23°C° 0 mm 1 mps 681 mmHg 46%
    06:00 +24°C° 0 mm 1 mps 682 mmHg 44%
    07:00 +25°C° 0 mm 1 mps 682 mmHg 41%
    08:00 +26°C° 0 mm 1 mps 683 mmHg 39%
    09:00 +27°C° 0 mm 1 mps 683 mmHg 36%
    10:00 +28°C° 0 mm 2 mps 683 mmHg 33%
    11:00 +29°C° 0 mm 2 mps 683 mmHg 30%
    12:00 +30°C° 0 mm 3 mps 683 mmHg 29%
    13:00 +32°C° 0 mm 4 mps 683 mmHg 27%
    14:00 +32°C° 0 mm 4 mps 682 mmHg 25%
    15:00 +30°C° 0 mm 4 mps 682 mmHg 29%
    16:00 +30°C° 0 mm 4 mps 682 mmHg 32%
    17:00 +29°C° 0 mm 4 mps 682 mmHg 35%
    18:00 +28°C° 0 mm 3 mps 682 mmHg 38%
    19:00 +27°C° 0 mm 3 mps 682 mmHg 41%
    20:00 +26°C° 0 mm 2 mps 682 mmHg 44%
    21:00 +25°C° 0.1 mm 2 mps 682 mmHg 44%
    22:00 +25°C° 0.1 mm 2 mps 682 mmHg 44%
    23:00 +24°C° 0.1 mm 2 mps 682 mmHg 44%

    24 October, Wednesday

    Time Temperature Precipitation Wind Pressure Humidity
    00:00 +24°C° 0.1 mm 2 mps 682 mmHg 45%
    01:00 +23°C° 0.1 mm 2 mps 681 mmHg 46%
    02:00 +23°C° 0.1 mm 2 mps 681 mmHg 47%
    03:00 +23°C° 0 mm 2 mps 681 mmHg 48%
    04:00 +21°C° 0 mm 2 mps 681 mmHg 48%
    05:00 +21°C° 0 mm 2 mps 681 mmHg 49%
    06:00 +21°C° 0 mm 2 mps 682 mmHg 45%
    07:00 +23°C° 0 mm 2 mps 682 mmHg 42%
    08:00 +24°C° 0 mm 3 mps 683 mmHg 39%
    09:00 +25°C° 0 mm 3 mps 683 mmHg 34%
    10:00 +27°C° 0 mm 3 mps 683 mmHg 30%
    11:00 +28°C° 0 mm 4 mps 683 mmHg 25%
    12:00 +28°C° 0 mm 4 mps 683 mmHg 23%
    13:00 +29°C° 0 mm 4 mps 682 mmHg 21%
    14:00 +29°C° 0 mm 4 mps 682 mmHg 19%
    15:00 +28°C° 0 mm 4 mps 682 mmHg 21%
    16:00 +27°C° 0 mm 3 mps 681 mmHg 23%
    17:00 +27°C° 0 mm 3 mps 681 mmHg 25%
    18:00 +26°C° 0 mm 3 mps 682 mmHg 27%
    19:00 +25°C° 0 mm 2 mps 682 mmHg 28%
    20:00 +24°C° 0 mm 2 mps 682 mmHg 30%
    21:00 +23°C° 0 mm 2 mps 682 mmHg 30%
    22:00 +23°C° 0 mm 1 mps 682 mmHg 31%
    23:00 +22°C° 0 mm 1 mps 682 mmHg 31%
    Show more